Retour au catalogue

OPS 4682 DEB

ActifPO
NORAD 38423·DEBRIS·🇺🇸 United States

Lancé Apr 3, 1965 depuis Vandenberg Space Force Base

Loading…

Prochains Passages (prochaines 24 heures)

TLE

FraisSource: Space-Track

Époque: Sep 13, 2026, 07:04 UTC

1 38423U 65027EC  26256.29485648  .00000401  00000-0  13966-2 0  9999
2 38423  90.2553  13.8295 0015656   9.8383 350.3040 12.95346540645524

Suivez OPS 4682 DEB en temps réel avec AllMySat

Download on the App Store